| time (UTC) | temp F | wind direction | speed MPH | gust MPH | rain 1hr in | rain 24hr in | rain mn in | humidity % | barometer mb |
| 20260906064728 | 53 | 199 | 0.0 | 0.0 | 0.00 | 0.00 | 0.00 | 98 | 1024.5 |
| 20260906061728 | 54 | 199 | 0.0 | 0.0 | 0.00 | 0.00 | 0.00 | 97 | 1024.5 |
| 20260906054726 | 55 | 199 | 0.0 | 0.0 | 0.00 | 0.00 | 0.00 | 96 | 1024.7 |
| 20260906051725 | 56 | 206 | 0.0 | 0.0 | 0.00 | 0.00 | 0.00 | 95 | 1024.6 |
| 20260906044722 | 57 | 199 | 2.0 | 2.0 | 0.00 | 0.00 | 0.00 | 91 | 1024.8 |
| 20260906041721 | 59 | 205 | 0.0 | 0.0 | 0.00 | 0.00 | 0.00 | 87 | 1024.8 |
| 20260906034721 | 60 | 203 | 0.0 | 0.0 | 0.00 | 0.00 | 0.00 | 85 | 1024.8 |
| 20260906031721 | 62 | 204 | 0.0 | 0.0 | 0.00 | 0.00 | 0.00 | 78 | 1024.3 |
| 20260906024716 | 64 | 186 | 0.0 | 0.0 | 0.00 | 0.00 | 0.00 | 73 | 1024.3 |
| 20260906021717 | 66 | 182 | 0.0 | 0.0 | 0.00 | 0.00 | 0.00 | 68 | 1023.8 |
| 20260906014716 | 67 | 206 | 0.0 | 0.0 | 0.00 | 0.00 | 0.00 | 65 | 1023.7 |
| 20260906011716 | 69 | 205 | 0.0 | 0.0 | 0.00 | 0.00 | 0.00 | 61 | 1023.6 |
| 20260906004713 | 69 | 206 | 0.0 | 0.0 | 0.00 | 0.00 | 0.00 | 60 | 1023.7 |
| 20260906001707 | 68 | 212 | 0.0 | 0.0 | 0.00 | 0.00 | 0.00 | 65 | 1023.6 |
| 20260905234705 | 68 | 217 | 0.0 | 0.0 | 0.00 | 0.00 | 0.00 | 61 | 1023.9 |
| 20260905231704 | 71 | 213 | 0.0 | 1.0 | 0.00 | 0.00 | 0.00 | 56 | 1023.9 |
| 20260905224704 | 68 | 202 | 1.0 | 1.0 | 0.00 | 0.00 | 0.00 | 62 | 1024.6 |
| 20260905221700 | 65 | 211 | 0.0 | 0.0 | 0.00 | 0.00 | 0.00 | 69 | 1024.8 |
| 20260905214657 | 64 | 182 | 1.0 | 1.0 | 0.00 | 0.00 | 0.00 | 72 | 1025.0 |
| 20260905211656 | 63 | 207 | 0.0 | 0.0 | 0.00 | 0.00 | 0.00 | 74 | 1025.2 |
| 20260905204652 | 63 | 152 | 0.0 | 0.0 | 0.00 | 0.00 | 0.00 | 73 | 1025.6 |
| 20260905201647 | 62 | 209 | 1.0 | 1.0 | 0.00 | 0.00 | 0.00 | 75 | 1025.4 |
| 20260905194643 | 62 | 184 | 0.0 | 1.0 | 0.00 | 0.00 | 0.00 | 78 | 1025.7 |
| 20260905191642 | 62 | 217 | 1.0 | 1.0 | 0.00 | 0.00 | 0.00 | 77 | 1025.9 |
| 20260905184637 | 64 | 197 | 0.0 | 1.0 | 0.00 | 0.00 | 0.00 | 74 | 1026.2 |
| 20260905181637 | 62 | 168 | 0.0 | 0.0 | 0.00 | 0.00 | 0.00 | 76 | 1026.2 |
| 20260905174634 | 61 | 111 | 0.0 | 1.0 | 0.00 | 0.00 | 0.00 | 78 | 1026.3 |
| 20260905171629 | 60 | 202 | 1.0 | 2.0 | 0.00 | 0.00 | 0.00 | 78 | 1026.2 |
| 20260905164625 | 60 | 133 | 1.0 | 2.0 | 0.00 | 0.00 | 0.00 | 80 | 1025.9 |
| 20260905161623 | 59 | 217 | 0.0 | 1.0 | 0.00 | 0.00 | 0.00 | 83 | 1026.0 |
| 20260905154619 | 59 | 193 | 0.0 | 1.0 | 0.00 | 0.00 | 0.00 | 85 | 1026.0 |
| 20260905151614 | 55 | 186 | 1.0 | 1.0 | 0.00 | 0.00 | 0.00 | 97 | 1025.9 |
| 20260905144614 | 51 | 200 | 0.0 | 1.0 | 0.00 | 0.00 | 0.00 | 99 | 1025.9 |
| 20260905141613 | 50 | 200 | 0.0 | 0.0 | 0.00 | 0.00 | 0.00 | 99 | 1025.4 |
| 20260905134612 | 50 | 200 | 0.0 | 0.0 | 0.00 | 0.00 | 0.00 | 99 | 1025.3 |
| 20260905131608 | 49 | 200 | 0.0 | 0.0 | 0.00 | 0.00 | 0.00 | 99 | 1025.4 |
| 20260905124607 | 49 | 210 | 0.0 | 0.0 | 0.00 | 0.00 | 0.00 | 99 | 1025.2 |
| 20260905121607 | 49 | 183 | 1.0 | 2.0 | 0.00 | 0.00 | 0.00 | 99 | 1025.1 |
| 20260905114601 | 49 | 194 | 0.0 | 0.0 | 0.00 | 0.00 | 0.00 | 99 | 1025.0 |
| 20260905111600 | 49 | 199 | 0.0 | 0.0 | 0.00 | 0.00 | 0.00 | 99 | 1024.9 |
| 20260905104555 | 50 | 200 | 0.0 | 0.0 | 0.00 | 0.00 | 0.00 | 99 | 1024.9 |
| 20260905101554 | 50 | 205 | 0.0 | 0.0 | 0.00 | 0.00 | 0.00 | 99 | 1024.7 |
| 20260905094551 | 50 | 194 | 1.0 | 2.0 | 0.00 | 0.00 | 0.00 | 99 | 1024.7 |
| 20260905091547 | 50 | 199 | 0.0 | 0.0 | 0.00 | 0.00 | 0.00 | 99 | 1024.8 |
| 20260905084543 | 51 | 202 | 0.0 | 0.0 | 0.00 | 0.00 | 0.00 | 99 | 1024.5 |
| 20260905081543 | 52 | 198 | 0.0 | 0.0 | 0.00 | 0.00 | 0.00 | 99 | 1024.3 |
| 20260905074543 | 52 | 199 | 0.0 | 0.0 | 0.00 | 0.00 | 0.00 | 99 | 1024.4 |
| 20260905071539 | 53 | 201 | 0.0 | 0.0 | 0.00 | 0.00 | 0.00 | 99 | 1024.3 |